DW0088 Weather Reports


Display with metric or nautical units.
time (UTC)temp
F
wind
direction
speed
MPH
gust
MPH
rain 1hr
in
rain 24hr
in
rain mn
in
humidity
%
barometer
mb
20260906204001 67 93 3.0 6.0 0.00 0.00 0.00 74 1019.7
20260906203000 66 91 2.0 5.0 0.00 0.00 0.00 78 1019.7
20260906202000 67 89 2.0 3.0 0.00 0.00 0.00 76 1020.0
20260906200002 68 89 2.0 5.0 0.00 0.00 0.00 73 1020.1
20260906195000 68 90 2.0 5.0 0.00 0.00 0.00 71 1020.0
20260906193001 68 91 3.0 5.0 0.00 0.00 0.00 71 1020.1
20260906192001 69 97 4.0 7.0 0.00 0.00 0.00 71 1020.2
20260906191001 69 99 4.0 7.0 0.00 0.00 0.00 71 1020.3
20260906185001 67 90 3.0 6.0 0.00 0.00 0.00 75 1020.5
20260906183000 68 87 3.0 5.0 0.00 0.00 0.00 75 1020.6
20260906182001 69 92 2.0 3.0 0.00 0.00 0.00 72 1020.7
20260906181001 70 92 2.0 3.0 0.00 0.00 0.00 71 1020.7
20260906180001 71 0 0.0 0.0 0.00 0.00 0.00 69 1020.7
20260906174001 71 92 1.0 3.0 0.00 0.00 0.00 66 1020.9
20260906173001 72 92 1.0 3.0 0.00 0.00 0.00 64 1020.9
20260906172001 72 91 3.0 6.0 0.00 0.00 0.00 63 1021.2
20260906171001 73 91 3.0 6.0 0.00 0.00 0.00 62 1021.3
20260906170001 74 97 3.0 5.0 0.00 0.00 0.00 60 1021.3
20260906165001 74 100 4.0 8.0 0.00 0.00 0.00 58 1021.4
20260906164001 75 97 4.0 9.0 0.00 0.00 0.00 58 1021.4
20260906163001 74 98 5.0 10.0 0.00 0.00 0.00 58 1021.4
20260906161001 75 96 6.0 11.0 0.00 0.00 0.00 58 1021.8
20260906160002 75 113 4.0 8.0 0.00 0.00 0.00 58 1021.8
20260906155001 75 107 6.0 10.0 0.00 0.00 0.00 56 1021.8
20260906154002 75 108 4.0 9.0 0.00 0.00 0.00 56 1021.8
20260906153001 76 110 5.0 9.0 0.00 0.00 0.00 56 1021.8
20260906152001 76 114 4.0 10.0 0.00 0.00 0.00 59 1021.8
20260906151001 75 103 6.0 10.0 0.00 0.00 0.00 56 1021.8
20260906150002 74 110 4.0 10.0 0.00 0.00 0.00 58 1021.8
20260906145001 74 101 8.0 15.0 0.00 0.00 0.00 57 1022.1
20260906144002 75 107 5.0 10.0 0.00 0.00 0.00 56 1022.3
20260906143002 75 99 6.0 10.0 0.00 0.00 0.00 55 1022.3
20260906142001 74 88 7.0 12.0 0.00 0.00 0.00 56 1022.4
20260906140002 74 99 4.0 10.0 0.00 0.00 0.00 58 1022.7
20260906134001 74 111 6.0 12.0 0.00 0.00 0.00 57 1023.1
20260906133002 74 94 6.0 11.0 0.00 0.00 0.00 56 1023.1
20260906132002 73 117 5.0 12.0 0.00 0.00 0.00 57 1023.3
20260906130002 72 110 6.0 10.0 0.00 0.00 0.00 59 1023.4
20260906125001 73 104 6.0 10.0 0.00 0.00 0.00 58 1023.5
20260906123003 72 106 6.0 10.0 0.00 0.00 0.00 59 1023.6
20260906122002 72 92 8.0 17.0 0.00 0.00 0.00 59 1023.6
20260906121002 72 103 8.0 14.0 0.00 0.00 0.00 60 1024.0
20260906120002 72 98 7.0 15.0 0.00 0.00 0.00 60 1024.0
20260906115002 71 120 7.0 11.0 0.00 0.00 0.00 61 1024.3
20260906114002 71 130 5.0 10.0 0.00 0.00 0.00 60 1024.4
20260906113002 71 104 8.0 13.0 0.00 0.00 0.00 60 1024.4
20260906112002 71 99 7.0 13.0 0.00 0.00 0.00 62 1024.5
20260906111002 70 124 6.0 10.0 0.00 0.00 0.00 60 1024.7
20260906110004 70 134 6.0 16.0 0.00 0.00 0.00 63 1024.7
20260906105002 70 139 5.0 14.0 0.00 0.00 0.00 62 1024.9
20260906104002 70 108 6.0 14.0 0.00 0.00 0.00 62 1024.9
20260906103003 70 106 7.0 15.0 0.00 0.00 0.00 60 1024.9
20260906101002 69 108 5.0 14.0 0.00 0.00 0.00 64 1025.5
20260906095002 69 100 7.0 13.0 0.00 0.00 0.00 65 1025.5
20260906094002 68 101 7.0 13.0 0.00 0.00 0.00 65 1025.6
20260906093002 67 103 7.0 14.0 0.00 0.00 0.00 66 1025.6
20260906092002 67 111 6.0 10.0 0.00 0.00 0.00 65 1025.9
20260906085002 66 98 8.0 13.0 0.00 0.00 0.00 68 1025.8
20260906084002 65 100 8.0 14.0 0.00 0.00 0.00 69 1025.9
20260906083002 65 101 8.0 14.0 0.00 0.00 0.00 73 1025.9
20260906082002 64 94 7.0 11.0 0.00 0.00 0.00 75 1026.1
20260906081003 64 110 4.0 7.0 0.00 0.00 0.00 78 1026.1
20260906080004 63 100 6.0 11.0 0.00 0.00 0.00 79 1026.1
20260906075003 62 99 5.0 8.0 0.00 0.00 0.00 83 1026.2
20260906073003 61 113 2.0 7.0 0.00 0.00 0.00 85 1026.0
20260906072003 60 103 2.0 5.0 0.00 0.00 0.00 90 1026.0
20260906071002 58 110 2.0 4.0 0.00 0.00 0.00 93 1026.0
20260906070002 57 124 2.0 5.0 0.00 0.00 0.00 97 1026.0
20260906064003 55 166 1.0 3.0 0.00 0.00 0.00 99 1026.1
20260906063002 54 166 1.0 3.0 0.00 0.00 0.00 100 1026.1
20260906062003 53 166 0.0 3.0 0.00 0.00 0.00 100 1026.0
20260906061003 51 166 0.0 2.0 0.00 0.00 0.00 99 1026.1
20260906060003 49 166 0.0 1.0 0.00 0.00 0.00 99 1026.1
20260906055003 49 166 0.0 2.0 0.00 0.00 0.00 99 1026.0
20260906053003 47 0 0.0 0.0 0.00 0.00 0.00 98 1025.9
20260906052002 47 0 0.0 0.0 0.00 0.00 0.00 98 1025.9
20260906051003 46 0 0.0 0.0 0.00 0.00 0.00 98 1025.9
20260906050003 46 0 0.0 0.0 0.00 0.00 0.00 98 1025.9
20260906045002 46 0 0.0 0.0 0.00 0.00 0.00 98 1026.0
20260906044002 46 0 0.0 0.0 0.00 0.00 0.00 98 1026.0
20260906043004 46 0 0.0 0.0 0.00 0.00 0.00 97 1026.0
20260906042002 47 0 0.0 0.0 0.00 0.00 0.00 97 1026.1
20260906041003 48 0 0.0 0.0 0.00 0.00 0.00 98 1026.5
20260906040003 48 0 0.0 0.0 0.00 0.00 0.00 98 1026.5
20260906035003 48 0 0.0 0.0 0.00 0.00 0.00 98 1026.5
20260906034002 48 0 0.0 0.0 0.00 0.00 0.00 98 1026.4
20260906032004 48 0 0.0 0.0 0.00 0.00 0.00 98 1026.1
20260906031003 48 167 1.0 2.0 0.00 0.00 0.00 98 1026.3
20260906030003 47 166 0.0 2.0 0.00 0.00 0.00 97 1026.3
20260906025003 48 167 1.0 2.0 0.00 0.00 0.00 97 1026.4
20260906024003 48 166 1.0 2.0 0.00 0.00 0.00 97 1026.7
20260906022003 49 166 0.0 1.0 0.00 0.00 0.00 97 1026.9
20260906021003 49 166 0.0 2.0 0.00 0.00 0.00 97 1026.9
20260906020003 49 163 2.0 4.0 0.00 0.00 0.00 97 1026.9
20260906015004 49 160 2.0 3.0 0.00 0.00 0.00 97 1026.7
20260906014003 49 160 1.0 2.0 0.00 0.00 0.00 97 1026.5
20260906013004 49 0 0.0 0.0 0.00 0.00 0.00 97 1026.5
20260906012004 49 161 0.0 1.0 0.00 0.00 0.00 97 1026.5
20260906011003 49 160 1.0 3.0 0.00 0.00 0.00 97 1026.5
20260906010003 49 160 0.0 3.0 0.00 0.00 0.00 97 1026.5
20260906005003 50 175 2.0 4.0 0.00 0.00 0.00 97 1026.5
20260906004004 50 196 1.0 3.0 0.00 0.00 0.00 96 1026.6
20260906003003 50 196 0.0 3.0 0.00 0.00 0.00 97 1026.6
20260906002004 50 0 0.0 0.0 0.00 0.00 0.00 96 1026.5
20260906001003 50 0 0.0 0.0 0.00 0.00 0.00 96 1026.5
20260906000005 50 0 0.0 0.0 0.00 0.00 0.00 96 1026.5
20260905234004 50 0 0.0 0.0 0.00 0.00 0.00 96 1026.4
20260905233004 51 195 0.0 1.0 0.00 0.00 0.00 96 1026.4
20260905231003 51 196 1.0 2.0 0.00 0.00 0.00 96 1026.1
20260905230004 51 196 1.0 3.0 0.00 0.00 0.00 95 1026.1
20260905225004 51 196 1.0 2.0 0.00 0.00 0.00 95 1026.2
20260905223004 52 196 1.0 3.0 0.00 0.00 0.00 95 1026.0
20260905222004 52 195 0.0 1.0 0.00 0.00 0.00 95 1026.2
20260905220009 53 196 1.0 2.0 0.00 0.00 0.00 94 1026.0
20260905215005 53 195 1.0 2.0 0.00 0.00 0.00 94 1025.9
20260905214004 53 196 0.0 2.0 0.00 0.00 0.00 93 1025.9
20260905213004 54 196 1.0 2.0 0.00 0.00 0.00 94 1025.9
20260905211004 53 0 0.0 0.0 0.00 0.00 0.00 93 1025.8
20260905210006 53 0 0.0 0.0 0.00 0.00 0.00 92 1025.8